Date String (YYYY-MM-DD hh:mm:ss) UTC,Instrument flags,Ambient pressure (hPa),Sample flow (lpm),Bypass flow (lpm),Sample temperature (°C),Ambient temperature (°C),ASC tube jacket temperature (°C),LED temperature (°C),Box temperature (°C),Sample RH (%),Span deviation,Mass concentration (μg/m³),Mass concentration (μg/m³),Mass concentration (μg/m³)
DateTimeUTC,F1_M11,P_M11,Q1_M11,Q2_M11,T1_M11,T2_M11,T3_M11,T4_M11,T5_M11,U1_M11,ZSPAN_M11,X0_M11,X2_M11,X1_M11
2021-09-23 16:00:00,,0829.5,5.00,0.00,30.1,28.9,00.0,39.2,31.9,12.3,0000.0,0010.33,0002.94,0001.61
2021-09-23 16:01:00,,0829.5,5.01,0.00,30.1,29.0,00.0,39.2,31.9,12.2,0000.0,0009.80,0002.83,0001.59
2021-09-23 16:02:00,,0829.6,5.00,0.00,30.2,29.1,00.0,39.2,31.9,11.7,0000.0,0009.88,0002.81,0001.57
2021-09-23 16:03:00,,0829.6,5.00,0.00,30.2,29.1,00.0,39.2,32.0,11.6,0000.0,0010.58,0002.76,0001.55
2021-09-23 16:04:00,,0829.6,5.00,0.00,30.2,29.2,00.0,39.2,32.0,11.6,0000.0,0009.70,0002.63,0001.53
2021-09-23 16:05:00,,0829.5,5.00,0.00,30.3,29.3,00.0,39.2,32.0,11.5,0000.0,0009.62,0002.59,0001.52
2021-09-23 16:06:00,,0829.6,5.01,0.00,30.3,29.4,00.0,39.3,32.1,11.6,0000.0,0009.44,0002.58,0001.50
2021-09-23 16:07:00,,0829.6,5.01,0.00,30.3,29.4,00.0,39.3,32.1,11.8,0000.0,0009.68,0002.63,0001.50
2021-09-23 16:08:00,,0829.5,4.99,0.00,30.3,28.9,00.0,39.3,32.0,11.8,0000.0,0009.86,0002.68,0001.50
2021-09-23 16:09:00,,0829.6,5.01,0.00,30.2,26.9,00.0,39.3,31.4,12.2,0000.0,0009.19,0002.70,0001.49
2021-09-23 16:10:00,,0829.6,5.00,0.00,30.0,26.3,00.0,39.2,31.2,12.4,0000.0,0008.63,0002.61,0001.49
2021-09-23 16:11:00,,0829.6,5.01,0.00,29.9,26.7,00.0,39.2,31.3,12.0,0000.0,0008.03,0002.59,0001.49
2021-09-23 16:12:00,,0829.7,5.01,0.00,29.9,27.1,00.0,39.1,31.3,12.1,0000.0,0007.92,0002.58,0001.49
2021-09-23 16:13:00,,0829.7,4.99,0.00,29.9,27.5,00.0,39.1,31.4,12.0,0000.0,0007.99,0002.56,0001.50
2021-09-23 16:14:00,,0829.6,5.00,0.00,29.9,27.9,00.0,39.1,31.5,11.3,0000.0,0007.06,0002.55,0001.51
2021-09-23 16:15:00,,0829.7,4.99,0.00,29.9,28.2,00.0,39.1,31.6,11.1,0000.0,0006.88,0002.54,0001.51
2021-09-23 16:16:00,,0829.7,5.01,0.00,29.9,28.4,00.0,39.1,31.7,11.0,0000.0,0006.22,0002.47,0001.50
2021-09-23 16:17:00,,0829.6,4.99,0.00,30.0,28.6,00.0,39.1,31.7,10.8,0000.0,0006.84,0002.45,0001.49
2021-09-23 16:18:00,,0829.6,5.00,0.00,30.0,28.7,00.0,39.1,31.7,11.1,0000.0,0007.00,0002.43,0001.49
2021-09-23 16:19:00,,0829.7,5.01,0.00,30.0,28.9,00.0,39.1,31.8,11.2,0000.0,0007.36,0002.33,0001.48
2021-09-23 16:20:00,,0829.6,4.99,0.00,30.0,29.0,00.0,39.1,31.9,10.6,0000.0,0007.94,0002.28,0001.48
2021-09-23 16:21:00,,0829.7,5.01,0.00,30.1,29.1,00.0,39.1,31.9,10.4,0000.0,0008.04,0002.26,0001.45
2021-09-23 16:22:00,,0829.7,4.99,0.00,30.1,29.1,00.0,39.1,31.9,10.0,0000.0,0008.23,0002.20,0001.44
2021-09-23 16:23:00,,0829.7,5.00,0.00,30.1,29.2,00.0,39.1,32.0,10.3,0000.0,0008.99,0002.14,0001.42
2021-09-23 16:24:00,,0829.7,5.02,0.00,30.2,29.3,00.0,39.2,32.0,10.3,0000.0,0008.77,0002.05,0001.40
2021-09-23 16:25:00,,0829.7,4.99,0.00,30.2,29.3,00.0,39.2,32.0,09.8,0000.0,0008.71,0002.07,0001.37
2021-09-23 16:26:00,,0829.7,5.02,0.00,30.2,29.0,00.0,39.2,32.0,09.7,0000.0,0009.34,0002.10,0001.35
2021-09-23 16:27:00,,0829.7,4.99,0.00,30.1,27.1,00.0,39.2,31.5,10.2,0000.0,0011.69,0002.19,0001.34
2021-09-23 16:28:00,,0829.6,5.00,0.00,30.0,26.3,00.0,39.1,31.2,10.3,0000.0,0011.80,0002.20,0001.34
2021-09-23 16:29:00,,0829.6,5.01,0.00,29.9,26.6,00.0,39.1,31.2,10.0,0000.0,0011.58,0002.13,0001.34
2021-09-23 16:30:00,,0829.6,4.99,0.00,29.8,27.0,00.0,39.1,31.3,09.8,0000.0,0011.04,0002.12,0001.33
2021-09-23 16:31:00,,0829.7,5.00,0.00,29.8,27.5,00.0,39.0,31.4,10.1,0000.0,0010.52,0002.13,0001.31
2021-09-23 16:32:00,,0829.6,5.00,0.00,29.8,27.8,00.0,39.0,31.4,10.3,0000.0,0010.52,0002.13,0001.31
2021-09-23 16:33:00,,0829.6,4.99,0.00,29.8,28.1,00.0,39.0,31.5,10.6,0000.0,0011.05,0002.16,0001.31
2021-09-23 16:34:00,,0829.6,4.99,0.00,29.9,28.3,00.0,39.0,31.6,10.5,0000.0,0010.54,0002.16,0001.31
2021-09-23 16:35:00,,0829.6,5.01,0.00,29.9,28.5,00.0,39.0,31.7,10.7,0000.0,0010.44,0002.18,0001.32
2021-09-23 16:36:00,,0829.6,4.98,0.00,29.9,28.7,00.0,39.0,31.7,10.9,0000.0,0010.45,0002.11,0001.32
2021-09-23 16:37:00,,0829.6,5.00,0.00,30.0,28.8,00.0,39.0,31.8,10.8,0000.0,0010.94,0002.11,0001.34
2021-09-23 16:38:00,,0829.6,5.01,0.00,30.0,28.9,00.0,39.0,31.8,11.1,0000.0,0009.28,0002.10,0001.34
2021-09-23 16:39:00,,0829.6,4.99,0.00,30.0,29.0,00.0,39.0,31.9,10.9,0000.0,0009.12,0002.09,0001.35
2021-09-23 16:40:00,,0829.8,5.00,0.00,30.1,29.1,00.0,39.1,31.9,10.8,0000.0,0008.96,0002.10,0001.37
2021-09-23 16:41:00,,0829.8,5.01,0.00,30.1,29.2,00.0,39.1,31.9,10.8,0000.0,0008.71,0002.11,0001.38
2021-09-23 16:42:00,,0829.6,5.00,0.00,30.2,29.2,00.0,39.1,32.0,11.6,0000.0,0009.04,0002.15,0001.40
2021-09-23 16:43:00,,0829.6,5.00,0.00,30.1,28.2,00.0,39.1,31.7,12.1,0000.0,0010.11,0002.26,0001.43
2021-09-23 16:44:00,,0829.7,5.00,0.00,30.0,26.5,00.0,39.1,31.2,12.0,0000.0,0010.53,0002.23,0001.44
2021-09-23 16:45:00,,0829.7,5.00,0.00,29.8,26.4,00.0,39.0,31.2,12.4,0000.0,0010.24,0002.31,0001.47
2021-09-23 16:46:00,,0829.7,5.01,0.00,29.8,26.8,00.0,39.0,31.3,12.3,0000.0,0010.44,0002.43,0001.49
2021-09-23 16:47:00,,0829.7,5.00,0.00,29.8,27.3,00.0,39.0,31.3,11.4,0000.0,0010.57,0002.54,0001.52
2021-09-23 16:48:00,,0829.7,4.99,0.00,29.8,27.6,00.0,38.9,31.4,11.5,0000.0,0009.97,0002.56,0001.53
2021-09-23 16:49:00,,0829.7,5.01,0.00,29.8,28.0,00.0,38.9,31.5,11.8,0000.0,0009.93,0002.61,0001.54
2021-09-23 16:50:00,,0829.6,5.00,0.00,29.8,28.2,00.0,38.9,31.5,11.8,0000.0,0010.16,0002.64,0001.56
2021-09-23 16:51:00,,0829.6,4.99,0.00,29.8,28.4,00.0,38.9,31.6,12.0,0000.0,0010.67,0002.76,0001.56
2021-09-23 16:52:00,,0829.6,5.01,0.00,29.9,28.6,00.0,38.9,31.7,12.7,0000.0,0010.80,0002.82,0001.59
2021-09-23 16:53:00,,0829.6,4.98,0.00,29.9,28.8,00.0,38.9,31.7,12.6,0000.0,0010.68,0002.84,0001.61
2021-09-23 16:54:00,,0829.8,5.00,0.00,29.9,28.9,00.0,39.0,31.7,12.4,0000.0,0009.75,0002.82,0001.61
2021-09-23 16:55:00,,0829.7,5.00,0.00,30.0,29.0,00.0,39.0,31.8,12.5,0000.0,0008.82,0002.89,0001.63
2021-09-23 16:56:00,,0829.6,5.00,0.00,30.0,29.1,00.0,39.0,31.9,12.7,0000.0,0008.88,0002.95,0001.65
2021-09-23 16:57:00,,0829.8,5.02,0.00,30.1,29.1,00.0,39.0,31.9,12.7,0000.0,0008.92,0002.95,0001.65
2021-09-23 16:58:00,,0829.6,5.00,0.00,30.0,28.0,00.0,39.0,31.6,12.9,0000.0,0009.08,0003.02,0001.67
2021-09-23 16:59:00,,0829.6,4.98,0.00,29.9,26.4,00.0,39.0,31.2,13.1,0000.0,0009.12,0003.05,0001.71
